Location: Orinda
(37.8771°N, 122.1797°W)
Time: 03:04:38
(UTC+00:00)

Cosmos 2184 Rocket - Pass Details

Date: 21 October 2019
Orbit: 960 x 1001 km, 82.9° (Epoch: 15 November)

Event Time Altitude Azimuth Distance (km) Brightness Sun altitude
Exits shadow 12:19:47 22° 197° (SSW) 1,964 5.4 -25.0°
Maximum altitude 12:23:54 71° 278° (W) 1,027 3.8 -24.2°
Drops below altitude 10° 12:30:11 10° 2° (N) 2,746 6.4 -22.9°
Sets 12:32:45 0° 5° (N) 3,704 7.1 -22.4°
